x

West Oregon - 275nm West Of Coos Bay, Or (46002) Wave Buoy

6:50am - Tue 16th Sep 2014 All times are UTC.

  • Sig Wave height 3.9ft
  • Peak Period 11s
  • Average Period 8s
  • Wind
    4mph
  • Sea Temp 66°f
  • Air Temp 64°f
  • Sea Pressure 1008.4mb

More Historic Weather Station data

Upgrade to MSW Pro to gain access to the past 30 days of data for over 8000 Wavebouys and Weather Stations around the globe.

Join Pro

Comparision Forecast

View Surf forecast
   
Tue 09/16 6:50am 4ft 11s 8s 4
mph
1008.4mb 66f 64f
5:50am 4.5ft 21s 9s 4
mph
1008.7mb 66f 63f
4:50am 4ft 21s 8s 7 9 mph 1008.8mb 66f 63f
3:50am 4.5ft 21s 8s 4 7 mph 1008.3mb 67f 64f
2:50am 4.5ft 21s 8s 4 7 mph 1008mb 67f 64f
1:50am 4.5ft 21s 8s 7 9 mph 1008.1mb 67f 64f
12:50am 4ft 21s 7s 7 9 mph 1008.1mb 67f 65f
Mon 09/15 11:50pm 3.5ft 21s 7s 7 9 mph 1008.1mb 67f 64f
10:50pm 3.5ft 21s 7s 9 11 mph 1008.5mb 67f 65f
9:50pm 4ft 16s 7s 7 11 mph 1009.5mb 67f 65f
8:50pm 3.5ft 16s 6s 9 11 mph 1009.4mb 67f 65f
7:50pm 3.5ft 24s 6s 11 16 mph 1009.1mb 67f 65f
6:50pm 3.5ft 24s 6s 13 16 mph 1009.3mb 67f 65f
5:50pm 3.5ft 17s 6s 11 13 mph 1009.2mb 66f 65f
4:50pm 3.5ft 21s 6s 11 16 mph 1009.1mb 66f 65f
3:50pm 3.5ft 17s 6s 13 16 mph 1009.1mb 66f 65f
2:50pm 3.5ft 24s 6s 11 13 mph 1009.9mb 66f 65f
1:50pm 3.5ft 13s 6s 11 13 mph 1009.8mb 66f 65f
12:50pm 3.5ft 14s 6s 11 13 mph 1009.6mb 66f 65f
11:50am 3.5ft 24s 6s 11 13 mph 1009.5mb 67f 65f
10:50am 3.5ft 24s 6s 11 13 mph 1009.7mb 67f 64f
9:50am 3.5ft 14s 6s 9 11 mph 1010.3mb 67f 64f
8:50am 3.5ft 14s 6s 11
mph
1010.4mb 67f 65f
7:50am 3.5ft 19s 6s 11 13 mph 1010.5mb 67f 65f
6:50am  -   -   -  11 13 mph 1010.8mb 67f 65f
5:50am 3.5ft 7s 6s 11 13 mph 1011.1mb 67f 65f
4:50am 3.5ft 7s 5s 13 16 mph 1010.9mb 67f 65f
3:50am 3.5ft 8s 5s 13 16 mph 1010.7mb 67f 65f
2:50am 4.5ft 13s 6s 13 16 mph 1010.5mb 67f 65f
1:50am 4ft 13s 6s 11 13 mph 1011.2mb 67f 65f
12:50am 4ft 7s 6s 11 13 mph 1011.2mb 67f 66f
Sun 09/14 11:50pm 4ft 6s 5s 11 13 mph 1011.4mb 67f 65f
10:50pm 4ft 7s 5s 11 13 mph 1011.6mb 67f 65f
9:50pm 4.5ft 7s 6s 11 13 mph 1012.1mb 67f 65f
8:50pm 4ft 13s 5s 11 13 mph 1012.4mb 67f 65f
7:50pm 4.5ft 7s 5s 11 13 mph 1012.5mb 67f 65f
6:50pm 4.5ft 14s 6s 13 16 mph 1012.5mb 67f 65f
5:50pm 4.5ft 7s 5s 13 16 mph 1012.6mb 66f 65f
4:50pm 4.5ft 7s 5s 13 18 mph 1012.4mb 66f 65f
3:50pm 4.5ft 8s 5s 13
mph
1012.4mb 66f 64f
2:50pm 4.5ft 8s 6s 13 18 mph 1012.2mb 66f 64f
1:50pm 5ft 8s 5s 16 18 mph 1011.9mb 66f 64f
12:50pm 4.5ft 8s 5s 16 18 mph 1011.9mb 66f 64f
11:50am 5ft 7s 5s 16 18 mph 1012mb 66f 64f
10:50am 5ft 8s 5s 16 18 mph 1012.2mb 66f 64f
9:50am 4.5ft 8s 5s 16 20 mph 1012.1mb 66f 64f
8:50am 5ft 7s 5s 16 18 mph 1012.6mb 66f 65f
7:50am 5ft 8s 6s 16 20 mph 1012.6mb 66f 65f
6:50am 5ft 7s 6s 13 18 mph 1012.7mb 66f 65f
5:50am 5ft 8s 6s 13 18 mph 1012.8mb 66f 65f
4:50am 5ft 8s 6s 13 18 mph 1012.7mb 66f 65f
3:50am 4.5ft 7s 5s 16 18 mph 1012.4mb 67f 65f
2:50am 5ft 7s 6s 16 18 mph 1012.4mb 67f 65f
1:50am 5ft 7s 5s 16 18 mph 1012.6mb 67f 65f
12:50am 5ft 7s 6s 16 18 mph 1012.9mb 67f 65f
Sat 09/13 11:50pm 5ft 7s 5s 16 20 mph 1013.1mb 67f 65f
10:50pm 5ft 7s 5s 16 18 mph 1013.4mb 67f 65f
9:50pm 5ft 7s 5s 16 20 mph 1013.6mb 67f 65f
8:50pm 5.5ft 7s 5s 16 18 mph 1014.1mb 66f 65f
7:50pm 5.5ft 7s 6s 16 18 mph 1014.5mb 66f 65f
6:50pm 5ft 8s 5s 16 18 mph 1014.6mb 66f 65f
5:50pm 5.5ft 7s 6s 16 18 mph 1014.7mb 66f 65f
4:50pm 5.5ft 8s 6s 16 20 mph 1014.6mb 66f 65f
3:50pm 5.5ft 7s 5s 16 18 mph 1014.6mb 66f 65f
2:50pm 6ft 8s 6s 16 20 mph 1014.5mb 67f 65f
1:50pm 6ft 8s 6s 18 22 mph 1014.2mb 67f 65f
12:50pm 6.5ft 8s 6s 18 20 mph 1014.3mb 67f 65f
11:50am 6ft 8s 6s 18 22 mph 1014.6mb 67f 65f
10:50am 6ft 7s 6s 18 22 mph 1014.7mb 66f 65f
9:50am  -   -   -  18 20 mph 1015mb 66f 65f
8:50am 7.5ft 8s 6s 18 22 mph 1015.4mb 67f 65f
7:50am 7ft 7s 6s 20 22 mph 1015.6mb 67f 65f
6:50am 7ft 8s 6s 20 22 mph 1015.7mb 67f 65f
5:50am 7ft 8s 6s 22 27 mph 1015.8mb 67f 65f
4:50am 7ft 8s 6s 20 25 mph 1015.8mb 67f 65f
3:50am 7ft 8s 6s 20 25 mph 1015.8mb 67f 65f
2:50am 8ft 8s 6s 20 22 mph 1015.8mb 67f 66f
1:50am 8ft 8s 6s 20 25 mph 1015.9mb 67f 66f
12:50am 7.5ft 8s 6s 20 25 mph 1016mb 67f 66f
Fri 09/12 11:50pm 8ft 8s 6s 20 25 mph 1016mb 67f 66f
10:50pm 7ft 8s 6s 20 25 mph 1016.4mb 67f 66f
9:50pm 7.5ft 8s 6s 20 22 mph 1016.9mb 67f 66f
8:50pm 8ft 8s 6s 20 22 mph 1017.3mb 67f 66f
7:50pm 7.5ft 8s 6s 20 25 mph 1017.3mb 67f 66f
6:50pm 8ft 8s 6s 20 25 mph 1017.6mb 67f 66f
5:50pm 7.5ft 8s 6s 20 25 mph 1017.7mb 67f 66f
4:50pm 7ft 7s 6s 22 27 mph 1017.7mb 67f 66f
3:50pm 7ft 7s 6s 22 27 mph 1017.5mb 67f 65f
2:50pm 7ft 7s 6s 22 27 mph 1017.3mb 67f 65f
1:50pm 7ft 8s 6s 20 25 mph 1017.3mb 67f 65f
12:50pm 7ft 7s 6s 20 25 mph 1017.3mb 67f 66f
11:50am 7.5ft 7s 6s 20 25 mph 1017.3mb 67f 66f
10:50am 7.5ft 7s 6s 22 27 mph 1017.4mb 67f 66f
9:50am 7ft 7s 6s 20 25 mph 1017.4mb 67f 66f
8:50am 7ft 7s 6s 18 22 mph 1017.9mb 67f 66f